Regional Weather Roundup
Issued by NWS

Home | Current Version | Previous Version | Graphics & Text | Print | Product List | Glossary On
Versions: 1 2 3 4 5 6 7 8 9 10 11 12 13 14 15 16 17 18 19 20 21 22 23 24 25 26 27 28 29 30 31 32 33 34 35 36 37 38 39 40 41 42 43 44 45 46 47 48 49 50
000
ASUS44 KMEG 230900
RWRTN
TENNESSEE HOURLY STATE WEATHER ROUNDUP
NATIONAL WEATHER SERVICE MEMPHIS TN
400 AM CDT TUE MAY 23 2017

TNZ002-004-019-021-049-052-054-088>092-231000-
WEST TENNESSEE

CITY           SKY/WX    TMP DP  RH WIND       PRES   REMARKS
MEMPHIS INTL   CLOUDY    65  60  84 CALM      29.84F
NWS MEMPHIS      N/A     62 N/A N/A MISG        N/A
JACKSON        CLOUDY    63  60  90 CALM      29.84F
DYERSBURG      CLOUDY    64  58  80 NE3       29.85F
$$

TNZ008-025-027-028-033-062-065-066-231000-
NORTH MIDDLE TENNESSEE

CITY           SKY/WX    TMP DP  RH WIND       PRES   REMARKS
NASHVILLE      CLOUDY    63  55  75 N6        29.85F
CLARKSVILLE    CLOUDY    61  54  77 E5        29.84F
SMYRNA           N/A    N/A N/A N/A MISG        N/A
CROSSVILLE     CLOUDY    61  56  83 CALM      29.89F
$$

TNZ061-075-076-078-094-096-097-231000-
SOUTH MIDDLE TENNESSEE

CITY           SKY/WX    TMP DP  RH WIND       PRES   REMARKS
WINCHESTER     CLOUDY    64  63  94 CALM      29.86S
$$

TNZ017-018-042-046-047-231000-
NORTHEAST TENNESSEE

CITY           SKY/WX    TMP DP  RH WIND       PRES   REMARKS
TRI CITIES     CLOUDY    62  58  86 CALM      29.86F
$$

TNZ012-013-036-069-073-074-231000-
CENTRAL EAST TENNESSEE

CITY           SKY/WX    TMP DP  RH WIND       PRES   REMARKS
KNOXVILLE      CLOUDY    64  62  93 NW6       29.83F
OAK RIDGE      CLOUDY    63  57  81 CALM      29.88F
GATLINBURG     CLOUDY    64  63  94 CALM      29.84F
$$

TNZ083-085-099-231000-
SOUTHEAST TENNESSEE

CITY           SKY/WX    TMP DP  RH WIND       PRES   REMARKS
CHATTANOOGA    LGT RAIN  65  62  90 CALM      29.87F
$$

SKY/WX REPORTED AS FAIR MEANS FEW OR NO CLOUDS BELOW
12 THOUSAND FEET.




USA.gov is the U.S. government's official web portal to all federal, state and local government web resources and services.